SPACEMOBILE-004

Last updated on Wed Sep 09 2026 00:02:09 GMT+0000 (Coordinated Universal Time)

1 61049U 24163E 26250.12332831 .00008463 00000+0 39564-3 0 9994 2 61049 52.9717 292.2102 0008535 37.6393 322.5197 15.20569055110237
UTC large
Height (km)
Speed (km/s)
/
Latitude / Longitude
Inclination (degrees)
Orbital Period (minutes)
Azimuth
Elevation
Range (km)
Doppler Factor

Next 0 passes for location: London (51.5072 / 0.1276)

No passes found over London.
SPACEMOBILE-004